When you browse on this site, cookies collect data to enhance your experience and personalize the content and advertising you see.
Visit our Privacy Policy to learn more. By continuing to use the site, you agree to this use of cookies and data.
  • în România
  • Lista ţărilor
  • Pe 7 zile
  • Temperatura apei
  • Hartă satelitară
  • Meteo pe hartă
  • Widget-uri
  • user-avatar
    Intrare

    Meteo pe oră la Arnieres-sur-Iton

    Astăzi, 20 Iulie, Sâmbătă

    Timp Temperatura Precipitaţii Vânt Presiune Umiditate
    00:00 +18°C° 0 mm 3 m/s 745 mmHg 83%
    01:00 +18°C° 0.3 mm 3 m/s 745 mmHg 86%
    02:00 +18°C° 0.3 mm 3 m/s 745 mmHg 88%
    03:00 +17°C° 0.3 mm 3 m/s 745 mmHg 91%
    04:00 +17°C° 0.2 mm 3 m/s 745 mmHg 90%
    05:00 +18°C° 0.2 mm 4 m/s 745 mmHg 88%
    06:00 +18°C° 0.2 mm 4 m/s 745 mmHg 86%
    07:00 +19°C° 0.4 mm 5 m/s 745 mmHg 82%
    08:00 +21°C° 0.4 mm 5 m/s 745 mmHg 78%
    09:00 +22°C° 0.4 mm 6 m/s 745 mmHg 74%
    10:00 +23°C° 0.3 mm 6 m/s 746 mmHg 70%
    11:00 +24°C° 0.3 mm 7 m/s 746 mmHg 66%
    12:00 +26°C° 0.3 mm 7 m/s 746 mmHg 63%
    13:00 +24°C° 0.4 mm 6 m/s 747 mmHg 64%
    14:00 +24°C° 0.4 mm 6 m/s 747 mmHg 65%
    15:00 +25°C° 0.4 mm 5 m/s 747 mmHg 66%
    16:00 +25°C° 0.1 mm 5 m/s 747 mmHg 66%
    17:00 +23°C° 0.1 mm 4 m/s 748 mmHg 67%
    18:00 +23°C° 0.1 mm 4 m/s 748 mmHg 67%
    19:00 +21°C° 0 mm 3 m/s 748 mmHg 74%
    20:00 +19°C° 0 mm 2 m/s 749 mmHg 81%
    21:00 +17°C° 0 mm 2 m/s 750 mmHg 89%
    22:00 +16°C° 0 mm 2 m/s 750 mmHg 90%
    23:00 +16°C° 0 mm 2 m/s 750 mmHg 92%

    Mâine, 21 Iulie, Duminică

    Timp Temperatura Precipitaţii Vânt Presiune Umiditate
    00:00 +15°C° 0 mm 1 m/s 751 mmHg 94%
    01:00 +15°C° 0 mm 1 m/s 751 mmHg 94%
    02:00 +15°C° 0 mm 1 m/s 751 mmHg 94%
    03:00 +14°C° 0 mm 1 m/s 751 mmHg 95%
    04:00 +15°C° 0 mm 1 m/s 752 mmHg 93%
    05:00 +16°C° 0 mm 1 m/s 752 mmHg 91%
    06:00 +16°C° 0 mm 1 m/s 752 mmHg 88%
    07:00 +19°C° 0 mm 1 m/s 753 mmHg 81%
    08:00 +21°C° 0 mm 1 m/s 753 mmHg 74%
    09:00 +21°C° 0 mm 2 m/s 754 mmHg 66%
    10:00 +23°C° 0 mm 2 m/s 754 mmHg 64%
    11:00 +24°C° 0 mm 1 m/s 754 mmHg 61%
    12:00 +25°C° 0 mm 1 m/s 754 mmHg 58%
    13:00 +25°C° 0 mm 1 m/s 754 mmHg 57%
    14:00 +25°C° 0 mm 1 m/s 754 mmHg 57%
    15:00 +25°C° 0 mm 1 m/s 754 mmHg 56%
    16:00 +25°C° 0 mm 1 m/s 754 mmHg 58%
    17:00 +25°C° 0 mm 1 m/s 754 mmHg 59%
    18:00 +25°C° 0 mm 1 m/s 754 mmHg 61%
    19:00 +23°C° 0 mm 1 m/s 754 mmHg 68%
    20:00 +21°C° 0 mm 1 m/s 755 mmHg 74%
    21:00 +19°C° 0 mm 1 m/s 755 mmHg 81%
    22:00 +19°C° 0 mm 1 m/s 755 mmHg 83%
    23:00 +18°C° 0 mm 1 m/s 755 mmHg 85%

    Poimâine, 22 Iulie, Luni

    Timp Temperatura Precipitaţii Vânt Presiune Umiditate
    00:00 +16°C° 0 mm 1 m/s 755 mmHg 88%
    01:00 +16°C° 0 mm 1 m/s 755 mmHg 88%
    02:00 +16°C° 0 mm 1 m/s 755 mmHg 88%
    03:00 +16°C° 0 mm 1 m/s 754 mmHg 89%
    04:00 +18°C° 0 mm 1 m/s 755 mmHg 87%
    05:00 +18°C° 0 mm 1 m/s 755 mmHg 84%
    06:00 +19°C° 0 mm 1 m/s 755 mmHg 82%
    07:00 +21°C° 0 mm 1 m/s 755 mmHg 75%
    08:00 +23°C° 0 mm 1 m/s 755 mmHg 68%
    09:00 +25°C° 0 mm 2 m/s 755 mmHg 60%
    10:00 +27°C° 0 mm 2 m/s 755 mmHg 55%
    11:00 +28°C° 0 mm 2 m/s 755 mmHg 49%
    12:00 +29°C° 0 mm 2 m/s 755 mmHg 44%
    13:00 +30°C° 0 mm 2 m/s 754 mmHg 42%
    14:00 +30°C° 0 mm 2 m/s 754 mmHg 40%
    15:00 +31°C° 0 mm 2 m/s 754 mmHg 38%
    16:00 +30°C° 0 mm 2 m/s 753 mmHg 42%
    17:00 +30°C° 0 mm 2 m/s 753 mmHg 47%
    18:00 +29°C° 0 mm 2 m/s 753 mmHg 51%
    19:00 +27°C° 0 mm 3 m/s 753 mmHg 57%
    20:00 +25°C° 0 mm 3 m/s 753 mmHg 63%
    21:00 +22°C° 0 mm 4 m/s 753 mmHg 69%
    22:00 +21°C° 0 mm 3 m/s 753 mmHg 70%
    23:00 +20°C° 0 mm 3 m/s 753 mmHg 71%

    23 Iulie, Marţi

    Timp Temperatura Precipitaţii Vânt Presiune Umiditate
    00:00 +20°C° 0 mm 3 m/s 753 mmHg 72%
    01:00 +19°C° 0 mm 3 m/s 752 mmHg 72%
    02:00 +19°C° 0 mm 3 m/s 752 mmHg 72%
    03:00 +19°C° 0 mm 3 m/s 752 mmHg 72%
    04:00 +19°C° 0 mm 3 m/s 752 mmHg 72%
    05:00 +20°C° 0 mm 3 m/s 752 mmHg 72%
    06:00 +20°C° 0 mm 2 m/s 751 mmHg 72%
    07:00 +24°C° 0 mm 3 m/s 751 mmHg 65%
    08:00 +26°C° 0 mm 3 m/s 751 mmHg 58%
    09:00 +28°C° 0 mm 3 m/s 751 mmHg 52%
    10:00 +30°C° 0 mm 4 m/s 751 mmHg 46%
    11:00 +33°C° 0 mm 4 m/s 751 mmHg 41%
    12:00 +35°C° 0 mm 4 m/s 750 mmHg 36%
    13:00 +35°C° 0 mm 4 m/s 750 mmHg 35%
    14:00 +36°C° 0 mm 4 m/s 750 mmHg 33%
    15:00 +37°C° 0 mm 3 m/s 749 mmHg 31%
    16:00 +36°C° 0 mm 3 m/s 749 mmHg 35%
    17:00 +35°C° 0 mm 3 m/s 748 mmHg 39%
    18:00 +34°C° 0 mm 2 m/s 748 mmHg 43%
    19:00 +30°C° 0.3 mm 2 m/s 748 mmHg 54%
    20:00 +27°C° 0.3 mm 2 m/s 749 mmHg 65%
    21:00 +23°C° 0.3 mm 2 m/s 749 mmHg 76%
    22:00 +22°C° 0 mm 3 m/s 749 mmHg 74%
    23:00 +22°C° 0 mm 3 m/s 748 mmHg 72%

    24 Iulie, Miercuri

    Timp Temperatura Precipitaţii Vânt Presiune Umiditate
    00:00 +22°C° 0 mm 3 m/s 748 mmHg 71%
    01:00 +22°C° 0 mm 3 m/s 748 mmHg 71%
    02:00 +22°C° 0 mm 3 m/s 748 mmHg 72%
    03:00 +21°C° 0 mm 3 m/s 748 mmHg 72%
    04:00 +23°C° 0 mm 2 m/s 748 mmHg 73%
    05:00 +23°C° 0 mm 2 m/s 748 mmHg 74%
    06:00 +23°C° 0 mm 1 m/s 748 mmHg 75%
    07:00 +26°C° 0 mm 1 m/s 748 mmHg 68%
    08:00 +28°C° 0 mm 1 m/s 748 mmHg 61%
    09:00 +30°C° 0 mm 1 m/s 748 mmHg 54%
    10:00 +32°C° 0 mm 2 m/s 748 mmHg 48%
    11:00 +35°C° 0 mm 2 m/s 748 mmHg 42%
    12:00 +37°C° 0 mm 3 m/s 748 mmHg 36%
    13:00 +38°C° 0 mm 3 m/s 748 mmHg 34%
    14:00 +38°C° 0 mm 3 m/s 747 mmHg 33%
    15:00 +39°C° 0 mm 3 m/s 747 mmHg 32%
    16:00 +38°C° 0 mm 3 m/s 747 mmHg 36%
    17:00 +37°C° 0 mm 2 m/s 747 mmHg 40%
    18:00 +36°C° 0 mm 2 m/s 746 mmHg 43%
    19:00 +35°C° 0 mm 2 m/s 747 mmHg 45%
    20:00 +32°C° 0 mm 2 m/s 747 mmHg 46%
    21:00 +30°C° 0 mm 2 m/s 747 mmHg 47%
    22:00 +29°C° 0 mm 2 m/s 747 mmHg 49%
    23:00 +29°C° 0 mm 3 m/s 747 mmHg 50%

    25 Iulie, Joi

    Timp Temperatura Precipitaţii Vânt Presiune Umiditate
    00:00 +28°C° 0 mm 3 m/s 746 mmHg 51%
    01:00 +27°C° 0 mm 3 m/s 746 mmHg 51%
    02:00 +27°C° 0 mm 3 m/s 746 mmHg 51%
    03:00 +26°C° 0 mm 3 m/s 746 mmHg 51%
    04:00 +26°C° 0 mm 3 m/s 746 mmHg 54%
    05:00 +26°C° 0 mm 3 m/s 746 mmHg 58%
    06:00 +26°C° 0 mm 3 m/s 747 mmHg 61%
    07:00 +28°C° 0.2 mm 3 m/s 747 mmHg 56%
    08:00 +30°C° 0.2 mm 3 m/s 747 mmHg 51%
    09:00 +33°C° 0.2 mm 3 m/s 747 mmHg 47%
    10:00 +35°C° 0 mm 3 m/s 747 mmHg 42%
    11:00 +37°C° 0 mm 3 m/s 747 mmHg 37%
    12:00 +39°C° 0 mm 3 m/s 747 mmHg 31%
    13:00 +38°C° 0 mm 3 m/s 747 mmHg 35%
    14:00 +38°C° 0 mm 4 m/s 747 mmHg 38%
    15:00 +37°C° 0 mm 5 m/s 747 mmHg 41%
    16:00 +34°C° 0 mm 5 m/s 747 mmHg 47%
    17:00 +30°C° 0 mm 5 m/s 747 mmHg 54%
    18:00 +28°C° 0 mm 5 m/s 747 mmHg 61%
    19:00 +26°C° 0 mm 5 m/s 747 mmHg 66%
    20:00 +23°C° 0 mm 5 m/s 747 mmHg 70%
    21:00 +21°C° 0 mm 4 m/s 748 mmHg 74%
    22:00 +20°C° 0.1 mm 4 m/s 748 mmHg 78%
    23:00 +20°C° 0.1 mm 4 m/s 748 mmHg 82%
    Arată mai mult